Powrót do katalogu

CZ-4B R/B

AktywnyLEO
NORAD 48624·ROCKET BODY·🇨🇳 China

Wystrzelony May 19, 2021 z Jiuquan Satellite Launch Center

Loading…

Następne Przeloty (najbliższe 24 godziny)

TLE

ŚwieżeSource: Space-Track

Epoka: Sep 14, 2026, 12:25 UTC

1 48624U 21043D   26257.51754487 -.00000068  00000-0  94536-5 0  9994
2 48624  66.0654 139.7013 0163069 327.7554  31.3642 14.21614136276277

Śledź CZ-4B R/B w czasie rzeczywistym z AllMySat

Download on the App Store